Find Starlink 30479

NORAD ID: 57898 Int'l Des: 2023-146 Owner: SPXS Country: US Constellation: starlink operational
LEOCIRCULAR

当前视图

正在加载3D地球...

About Starlink 30479

Starlink 30479 (NORAD 57898) is a starlink constellation satellite (v2 mini) launched Sep 20, 2023 by SPXS of US. It operates in LEO, CIRCULAR orbit with a mass of 730.00 kg.

关于 Starlink 30479

正在加载描述...

即将过境

Passes for default location (London). Set your location on the main map for personalized predictions.

高度历史

Loading altitude history...

两行轨道根数

1 57898U 23146H 26171.13737596 -.00002860 00000-0 -94452-4 0 9997
2 57898 43.0029 95.6880 0002582 256.5094 103.5470 15.27572206152725
Epoch: Jun 20, 2026 • Age: 12 hours

当前状态

高度 482.9 km
速度 7.63 km/s
星下点 18.66°N, 118.84°E
发射日期 Sep 20, 2023
运行时间 2.7 years
类型 internet

技术详情

分类 Payload
质量 730.00 kg
干质量 700.00 kg
总质量 730.00 kg
长度 0.30 m
直径 4.10 m
跨度 29.00 m
形状 Box + pan
制造商 SPXS
平台类型 Starlink V2M
阶段状态 In Orbit
所有者/国家 SPXS/US

Most Searched